Location: *
(34.0486°S, 61.7880°E)
Time: 01:10:15
(UTC+00:00)

Cosmos 1892 Rocket - Pass Details

Date: 01 April 2020
Orbit: 605 x 634 km, 82.5° (Epoch: 06 June)

Event Time Altitude Azimuth Distance (km) Brightness Sun altitude
Rises 15:07:19 0° 9° (N) 2,908 6.9 -17.4°
Reaches altitude 10° 15:09:36 10° 15° (NNE) 2,005 6.0 -17.8°
Maximum altitude 15:13:51 46° 88° (E) 852 3.8 -18.7°
Drops below altitude 10° 15:18:08 10° 160° (SSE) 2,016 6.1 -19.6°
Sets 15:20:26 0° 166° (SSE) 2,925 7.0 -20.1°
